Year,Month,Day,Hour,Minute,Value (Times are PST for temperature in C)
2016,08,25,00,00,16.70
2016,08,25,00,01,16.70
2016,08,25,00,02,16.70
2016,08,25,00,03,16.70
2016,08,25,00,04,16.70
2016,08,25,00,05,16.60
2016,08,25,00,06,16.60
2016,08,25,00,07,16.60
2016,08,25,00,08,16.60
2016,08,25,00,09,16.60
2016,08,25,00,10,16.60
2016,08,25,00,11,16.60
2016,08,25,00,12,16.60
2016,08,25,00,13,16.50
2016,08,25,00,14,16.50
2016,08,25,00,15,16.50
2016,08,25,00,16,16.50
2016,08,25,00,17,16.50
2016,08,25,00,18,16.40
2016,08,25,00,19,16.40
2016,08,25,00,20,16.40
2016,08,25,00,21,16.40
2016,08,25,00,22,16.40
2016,08,25,00,23,16.40
2016,08,25,00,24,16.40
2016,08,25,00,25,16.40
2016,08,25,00,26,16.40
2016,08,25,00,27,16.30
2016,08,25,00,28,16.30
2016,08,25,00,29,16.30
2016,08,25,00,30,16.30
2016,08,25,00,31,16.30
2016,08,25,00,32,16.30
2016,08,25,00,33,16.30
2016,08,25,00,34,16.30
2016,08,25,00,35,16.20
2016,08,25,00,36,16.20
2016,08,25,00,37,16.20
2016,08,25,00,38,16.20
2016,08,25,00,39,16.20
2016,08,25,00,40,16.20
2016,08,25,00,41,16.20
2016,08,25,00,42,16.10
2016,08,25,00,43,16.10
2016,08,25,00,44,16.10
2016,08,25,00,45,16.10
2016,08,25,00,46,16.10
2016,08,25,00,47,16.10
2016,08,25,00,48,16.00
2016,08,25,00,49,16.00
2016,08,25,00,50,16.00
2016,08,25,00,51,16.00
2016,08,25,00,52,16.00
2016,08,25,00,53,15.90
2016,08,25,00,54,15.90
2016,08,25,00,55,15.90
2016,08,25,00,56,15.90
2016,08,25,00,57,15.90
2016,08,25,00,58,15.90
2016,08,25,00,59,15.90
2016,08,25,01,00,15.80
2016,08,25,01,01,15.80
2016,08,25,01,02,15.80
2016,08,25,01,03,15.80
2016,08,25,01,04,15.80
2016,08,25,01,05,15.80
2016,08,25,01,06,15.80
2016,08,25,01,07,15.80
2016,08,25,01,08,15.80
2016,08,25,01,09,15.80
2016,08,25,01,10,15.70
2016,08,25,01,11,15.70
2016,08,25,01,12,15.70
2016,08,25,01,13,15.70
2016,08,25,01,14,15.70
2016,08,25,01,15,15.70
2016,08,25,01,16,15.70
2016,08,25,01,17,15.60
2016,08,25,01,18,15.60
2016,08,25,01,19,15.60
2016,08,25,01,20,15.60
2016,08,25,01,21,15.60
2016,08,25,01,22,15.60
2016,08,25,01,23,15.60
2016,08,25,01,24,15.60
2016,08,25,01,25,15.50
2016,08,25,01,26,15.50
2016,08,25,01,27,15.50
2016,08,25,01,28,15.50
2016,08,25,01,29,15.40
2016,08,25,01,30,15.40
2016,08,25,01,31,15.40
2016,08,25,01,32,15.40
2016,08,25,01,33,15.40
2016,08,25,01,34,15.40
2016,08,25,01,35,15.40
2016,08,25,01,36,15.30
2016,08,25,01,37,15.30
2016,08,25,01,38,15.30
2016,08,25,01,39,15.30
2016,08,25,01,40,15.30
2016,08,25,01,41,15.30
2016,08,25,01,42,15.30
2016,08,25,01,43,15.20
2016,08,25,01,44,15.20
2016,08,25,01,45,15.20
2016,08,25,01,46,15.20
2016,08,25,01,47,15.20
2016,08,25,01,48,15.20
2016,08,25,01,49,15.20
2016,08,25,01,50,15.10
2016,08,25,01,51,15.10
2016,08,25,01,52,15.10
2016,08,25,01,53,15.10
2016,08,25,01,54,15.10
2016,08,25,01,55,15.10
2016,08,25,01,56,15.10
2016,08,25,01,57,15.10
2016,08,25,01,58,15.10
2016,08,25,01,59,15.00
2016,08,25,02,00,15.00
2016,08,25,02,01,15.00
2016,08,25,02,02,15.00
2016,08,25,02,03,15.00
2016,08,25,02,04,15.00
2016,08,25,02,05,14.90
2016,08,25,02,06,14.90
2016,08,25,02,07,14.90
2016,08,25,02,08,14.90
2016,08,25,02,09,14.90
2016,08,25,02,10,14.90
2016,08,25,02,11,14.90
2016,08,25,02,12,14.90
2016,08,25,02,13,14.90
2016,08,25,02,14,14.80
2016,08,25,02,15,14.80
2016,08,25,02,16,14.80
2016,08,25,02,17,14.80
2016,08,25,02,18,14.80
2016,08,25,02,19,14.80
2016,08,25,02,20,14.80
2016,08,25,02,21,14.80
2016,08,25,02,22,14.80
2016,08,25,02,23,14.80
2016,08,25,02,24,14.80
2016,08,25,02,25,14.80
2016,08,25,02,26,14.80
2016,08,25,02,27,14.70
2016,08,25,02,28,14.70
2016,08,25,02,29,14.70
2016,08,25,02,30,14.70
2016,08,25,02,31,14.70
2016,08,25,02,32,14.70
2016,08,25,02,33,14.70
2016,08,25,02,34,14.70
2016,08,25,02,35,14.70
2016,08,25,02,36,14.70
2016,08,25,02,37,14.70
2016,08,25,02,38,14.60
2016,08,25,02,39,14.60
2016,08,25,02,40,14.60
2016,08,25,02,41,14.60
2016,08,25,02,42,14.60
2016,08,25,02,43,14.60
2016,08,25,02,44,14.60
2016,08,25,02,45,14.50
2016,08,25,02,46,14.50
2016,08,25,02,47,14.50
2016,08,25,02,48,14.50
2016,08,25,02,49,14.50
2016,08,25,02,50,14.50
2016,08,25,02,51,14.50
2016,08,25,02,52,14.40
2016,08,25,02,53,14.40
2016,08,25,02,54,14.40
2016,08,25,02,55,14.40
2016,08,25,02,56,14.40
2016,08,25,02,57,14.40
2016,08,25,02,58,14.40
2016,08,25,02,59,14.40
2016,08,25,03,00,14.40
2016,08,25,03,01,14.40
2016,08,25,03,02,14.40
2016,08,25,03,03,14.40
2016,08,25,03,04,14.40
2016,08,25,03,05,14.40
2016,08,25,03,06,14.30
2016,08,25,03,07,14.30
2016,08,25,03,08,14.30
2016,08,25,03,09,14.30
2016,08,25,03,10,14.30
2016,08,25,03,11,14.30
2016,08,25,03,12,14.30
2016,08,25,03,13,14.30
2016,08,25,03,14,14.30
2016,08,25,03,15,14.30
2016,08,25,03,16,14.30
2016,08,25,03,17,14.30
2016,08,25,03,18,14.30
2016,08,25,03,19,14.30
2016,08,25,03,20,14.30
2016,08,25,03,21,14.30
2016,08,25,03,22,14.30
2016,08,25,03,23,14.30
2016,08,25,03,24,14.30
2016,08,25,03,25,14.30
2016,08,25,03,26,14.20
2016,08,25,03,27,14.20
2016,08,25,03,28,14.20
2016,08,25,03,29,14.20
2016,08,25,03,30,14.20
2016,08,25,03,31,14.20
2016,08,25,03,32,14.20
2016,08,25,03,33,14.20
2016,08,25,03,34,14.20
2016,08,25,03,35,14.20
2016,08,25,03,36,14.20
2016,08,25,03,37,14.20
2016,08,25,03,38,14.20
2016,08,25,03,39,14.20
2016,08,25,03,40,14.10
2016,08,25,03,41,14.10
2016,08,25,03,42,14.10
2016,08,25,03,43,14.10
2016,08,25,03,44,14.10
2016,08,25,03,45,14.10
2016,08,25,03,46,14.10
2016,08,25,03,47,14.00
2016,08,25,03,48,14.00
2016,08,25,03,49,14.00
2016,08,25,03,50,14.00
2016,08,25,03,51,14.00
2016,08,25,03,52,14.00
2016,08,25,03,53,14.00
2016,08,25,03,54,14.00
2016,08,25,03,55,14.00
2016,08,25,03,56,13.90
2016,08,25,03,57,13.90
2016,08,25,03,58,13.90
2016,08,25,03,59,13.90
2016,08,25,04,00,13.90
2016,08,25,04,01,13.90
2016,08,25,04,02,13.90
2016,08,25,04,03,13.90
2016,08,25,04,04,13.90
2016,08,25,04,05,13.90
2016,08,25,04,06,13.80
2016,08,25,04,07,13.80
2016,08,25,04,08,13.80
2016,08,25,04,09,13.80
2016,08,25,04,10,13.80
2016,08,25,04,11,13.80
2016,08,25,04,12,13.80
2016,08,25,04,13,13.80
2016,08,25,04,14,13.80
2016,08,25,04,15,13.80
2016,08,25,04,16,13.80
2016,08,25,04,17,13.80
2016,08,25,04,18,13.80
2016,08,25,04,19,13.80
2016,08,25,04,20,13.80
2016,08,25,04,21,13.80
2016,08,25,04,22,13.70
2016,08,25,04,23,13.70
2016,08,25,04,24,13.70
2016,08,25,04,25,13.70
2016,08,25,04,26,13.70
2016,08,25,04,27,13.70
2016,08,25,04,28,13.70
2016,08,25,04,29,13.70
2016,08,25,04,30,13.70
2016,08,25,04,31,13.70
2016,08,25,04,32,13.70
2016,08,25,04,33,13.70
2016,08,25,04,34,13.70
2016,08,25,04,35,13.70
2016,08,25,04,36,13.70
2016,08,25,04,37,13.70
2016,08,25,04,38,13.70
2016,08,25,04,39,13.60
2016,08,25,04,40,13.60
2016,08,25,04,41,13.70
2016,08,25,04,42,13.70
2016,08,25,04,43,13.70
2016,08,25,04,44,13.70
2016,08,25,04,45,13.70
2016,08,25,04,46,13.70
2016,08,25,04,47,13.70
2016,08,25,04,48,13.70
2016,08,25,04,49,13.70
2016,08,25,04,50,13.70
2016,08,25,04,51,13.70
2016,08,25,04,52,13.70
2016,08,25,04,53,13.70
2016,08,25,04,54,13.70
2016,08,25,04,55,13.70
2016,08,25,04,56,13.70
2016,08,25,04,57,13.70
2016,08,25,04,58,13.60
2016,08,25,04,59,13.60
2016,08,25,05,00,13.60
2016,08,25,05,01,13.60
2016,08,25,05,02,13.60
2016,08,25,05,03,13.60
2016,08,25,05,04,13.60
2016,08,25,05,05,13.60
2016,08,25,05,06,13.60
2016,08,25,05,07,13.60
2016,08,25,05,08,13.60
2016,08,25,05,09,13.60
2016,08,25,05,10,13.60
2016,08,25,05,11,13.60
2016,08,25,05,12,13.60
2016,08,25,05,13,13.60
2016,08,25,05,14,13.60
2016,08,25,05,15,13.60
2016,08,25,05,16,13.60
2016,08,25,05,17,13.50
2016,08,25,05,18,13.50
2016,08,25,05,19,13.50
2016,08,25,05,20,13.50
2016,08,25,05,21,13.50
2016,08,25,05,22,13.50
2016,08,25,05,23,13.50
2016,08,25,05,24,13.50
2016,08,25,05,25,13.40
2016,08,25,05,26,13.40
2016,08,25,05,27,13.40
2016,08,25,05,28,13.40
2016,08,25,05,29,13.40
2016,08,25,05,30,13.40
2016,08,25,05,31,13.40
2016,08,25,05,32,13.40
2016,08,25,05,33,13.40
2016,08,25,05,34,13.40
2016,08,25,05,35,13.40
2016,08,25,05,36,13.40
2016,08,25,05,37,13.40
2016,08,25,05,38,13.30
2016,08,25,05,39,13.30
2016,08,25,05,40,13.30
2016,08,25,05,41,13.30
2016,08,25,05,42,13.30
2016,08,25,05,43,13.30
2016,08,25,05,44,13.30
2016,08,25,05,45,13.30
2016,08,25,05,46,13.30
2016,08,25,05,47,13.30
2016,08,25,05,48,13.20
2016,08,25,05,49,13.20
2016,08,25,05,50,13.20
2016,08,25,05,51,13.20
2016,08,25,05,52,13.20
2016,08,25,05,53,13.20
2016,08,25,05,54,13.20
2016,08,25,05,55,13.20
2016,08,25,05,56,13.20
2016,08,25,05,57,13.20
2016,08,25,05,58,13.20
2016,08,25,05,59,13.20
2016,08,25,06,00,13.20
2016,08,25,06,01,13.20
2016,08,25,06,02,13.20
2016,08,25,06,03,13.20
2016,08,25,06,04,13.20
2016,08,25,06,05,13.20
2016,08,25,06,06,13.20
2016,08,25,06,07,13.20
2016,08,25,06,08,13.20
2016,08,25,06,09,13.20
2016,08,25,06,10,13.20
2016,08,25,06,11,13.20
2016,08,25,06,12,13.20
2016,08,25,06,13,13.20
2016,08,25,06,14,13.20
2016,08,25,06,15,13.20
2016,08,25,06,16,13.20
2016,08,25,06,17,13.20
2016,08,25,06,18,13.20
2016,08,25,06,19,13.20
2016,08,25,06,20,13.20
2016,08,25,06,21,13.20
2016,08,25,06,22,13.20
2016,08,25,06,23,13.20
2016,08,25,06,24,13.20
2016,08,25,06,25,13.20
2016,08,25,06,26,13.20
2016,08,25,06,27,13.20
2016,08,25,06,28,13.20
2016,08,25,06,29,13.20
2016,08,25,06,30,13.10
2016,08,25,06,31,13.10
2016,08,25,06,32,13.10
2016,08,25,06,33,13.10
2016,08,25,06,34,13.10
2016,08,25,06,35,13.10
2016,08,25,06,36,13.10
2016,08,25,06,37,13.10
2016,08,25,06,38,13.10
2016,08,25,06,39,13.10
2016,08,25,06,40,13.00
2016,08,25,06,41,13.00
2016,08,25,06,42,13.00
2016,08,25,06,43,13.00
2016,08,25,06,44,13.00
2016,08,25,06,45,13.00
2016,08,25,06,46,13.00
2016,08,25,06,47,12.90
2016,08,25,06,48,12.90
2016,08,25,06,49,12.90
2016,08,25,06,50,12.90
2016,08,25,06,51,12.90
2016,08,25,06,52,12.90
2016,08,25,06,53,12.90
2016,08,25,06,54,12.90
2016,08,25,06,55,12.90
2016,08,25,06,56,12.90
2016,08,25,06,57,12.90
2016,08,25,06,58,13.00
2016,08,25,06,59,13.00
2016,08,25,07,00,13.00
2016,08,25,07,01,13.00
2016,08,25,07,02,13.10
2016,08,25,07,03,13.10
2016,08,25,07,04,13.10
2016,08,25,07,05,13.10
2016,08,25,07,06,13.10
2016,08,25,07,07,13.10
2016,08,25,07,08,13.20
2016,08,25,07,09,13.20
2016,08,25,07,10,13.20
2016,08,25,07,11,13.20
2016,08,25,07,12,13.20
2016,08,25,07,13,13.20
2016,08,25,07,14,13.20
2016,08,25,07,15,13.20
2016,08,25,07,16,13.20
2016,08,25,07,17,13.20
2016,08,25,07,18,13.30
2016,08,25,07,19,13.30
2016,08,25,07,20,13.30
2016,08,25,07,21,13.30
2016,08,25,07,22,13.30
2016,08,25,07,23,13.30
2016,08,25,07,24,13.30
2016,08,25,07,25,13.30
2016,08,25,07,26,13.30
2016,08,25,07,27,13.40
2016,08,25,07,28,13.40
2016,08,25,07,29,13.40
2016,08,25,07,30,13.40
2016,08,25,07,31,13.40
2016,08,25,07,32,13.50
2016,08,25,07,33,13.50
2016,08,25,07,34,13.50
2016,08,25,07,35,13.60
2016,08,25,07,36,13.60
2016,08,25,07,37,13.60
2016,08,25,07,38,13.70
2016,08,25,07,39,13.70
2016,08,25,07,40,13.70
2016,08,25,07,41,13.80
2016,08,25,07,42,13.80
2016,08,25,07,43,13.80
2016,08,25,07,44,13.90
2016,08,25,07,45,13.90
2016,08,25,07,46,13.90
2016,08,25,07,47,14.00
2016,08,25,07,48,14.00
2016,08,25,07,49,14.00
2016,08,25,07,50,14.10
2016,08,25,07,51,14.10
2016,08,25,07,52,14.10
2016,08,25,07,53,14.10
2016,08,25,07,54,14.20
2016,08,25,07,55,14.20
2016,08,25,07,56,14.30
2016,08,25,07,57,14.30
2016,08,25,07,58,14.30
2016,08,25,07,59,14.40
2016,08,25,08,00,14.40
2016,08,25,08,01,14.50
2016,08,25,08,02,14.60
2016,08,25,08,03,14.70
2016,08,25,08,04,14.90
2016,08,25,08,05,15.00
2016,08,25,08,06,15.10
2016,08,25,08,07,15.20
2016,08,25,08,08,15.30
2016,08,25,08,09,15.40
2016,08,25,08,10,15.50
2016,08,25,08,11,15.60
2016,08,25,08,12,15.70
2016,08,25,08,13,15.70
2016,08,25,08,14,15.80
2016,08,25,08,15,15.90
2016,08,25,08,16,15.90
2016,08,25,08,17,16.00
2016,08,25,08,18,16.10
2016,08,25,08,19,16.20
2016,08,25,08,20,16.30
2016,08,25,08,21,16.40
2016,08,25,08,22,16.40
2016,08,25,08,23,16.50
2016,08,25,08,24,16.50
2016,08,25,08,25,16.60
2016,08,25,08,26,16.60
2016,08,25,08,27,16.70
2016,08,25,08,28,16.70
2016,08,25,08,29,16.80
2016,08,25,08,30,16.90
2016,08,25,08,31,17.00
2016,08,25,08,32,17.10
2016,08,25,08,33,17.20
2016,08,25,08,34,17.30
2016,08,25,08,35,17.30
2016,08,25,08,36,17.40
2016,08,25,08,37,17.50
2016,08,25,08,38,17.60
2016,08,25,08,39,17.70
2016,08,25,08,40,17.70
2016,08,25,08,41,17.80
2016,08,25,08,42,17.80
2016,08,25,08,43,17.90
2016,08,25,08,44,17.90
2016,08,25,08,45,18.00
2016,08,25,08,46,18.10
2016,08,25,08,47,18.20
2016,08,25,08,48,18.30
2016,08,25,08,49,18.30
2016,08,25,08,50,18.40
2016,08,25,08,51,18.50
2016,08,25,08,52,18.60
2016,08,25,08,53,18.60
2016,08,25,08,54,18.70
2016,08,25,08,55,18.80
2016,08,25,08,56,18.80
2016,08,25,08,57,18.90
2016,08,25,08,58,19.00
2016,08,25,08,59,19.00
2016,08,25,09,00,19.10
2016,08,25,09,01,19.10
2016,08,25,09,02,19.20
2016,08,25,09,03,19.30
2016,08,25,09,04,19.30
2016,08,25,09,05,19.30
2016,08,25,09,06,19.40
2016,08,25,09,07,19.40
2016,08,25,09,08,19.50
2016,08,25,09,09,19.50
2016,08,25,09,10,19.60
2016,08,25,09,11,19.60
2016,08,25,09,12,19.70
2016,08,25,09,13,19.70
2016,08,25,09,14,19.70
2016,08,25,09,15,19.80
2016,08,25,09,16,19.80
2016,08,25,09,17,19.90
2016,08,25,09,18,19.90
2016,08,25,09,19,20.00
2016,08,25,09,20,20.10
2016,08,25,09,21,20.10
2016,08,25,09,22,20.20
2016,08,25,09,23,20.20
2016,08,25,09,24,20.20
2016,08,25,09,25,20.30
2016,08,25,09,26,20.30
2016,08,25,09,27,20.40
2016,08,25,09,28,20.50
2016,08,25,09,29,20.50
2016,08,25,09,30,20.60
2016,08,25,09,31,20.60
2016,08,25,09,32,20.70
2016,08,25,09,33,20.70
2016,08,25,09,34,20.80
2016,08,25,09,35,20.80
2016,08,25,09,36,20.90
2016,08,25,09,37,21.00
2016,08,25,09,38,21.00
2016,08,25,09,39,21.10
2016,08,25,09,40,21.20
2016,08,25,09,41,21.20
2016,08,25,09,42,21.30
2016,08,25,09,43,21.40
2016,08,25,09,44,21.50
2016,08,25,09,45,21.50
2016,08,25,09,46,21.60
2016,08,25,09,47,21.70
2016,08,25,09,48,21.70
2016,08,25,09,49,21.80
2016,08,25,09,50,21.90
2016,08,25,09,51,22.00
2016,08,25,09,52,22.10
2016,08,25,09,53,22.20
2016,08,25,09,54,22.30
2016,08,25,09,55,22.40
2016,08,25,09,56,22.50
2016,08,25,09,57,22.60
2016,08,25,09,58,22.70
2016,08,25,09,59,22.80
2016,08,25,10,00,22.90
2016,08,25,10,01,23.00
2016,08,25,10,02,23.10
2016,08,25,10,03,23.20
2016,08,25,10,04,23.40
2016,08,25,10,05,23.50
2016,08,25,10,06,23.70
2016,08,25,10,07,23.90
2016,08,25,10,08,24.00
2016,08,25,10,09,24.10
2016,08,25,10,10,24.30
2016,08,25,10,11,24.40
2016,08,25,10,12,24.50
2016,08,25,10,13,24.60
2016,08,25,10,14,24.70
2016,08,25,10,15,24.80
2016,08,25,10,16,24.90
2016,08,25,10,17,25.00
2016,08,25,10,18,25.10
2016,08,25,10,19,25.20
2016,08,25,10,20,25.30
2016,08,25,10,21,25.30
2016,08,25,10,22,25.40
2016,08,25,10,23,25.50
2016,08,25,10,24,25.60
2016,08,25,10,25,25.60
2016,08,25,10,26,25.70
2016,08,25,10,27,25.70
2016,08,25,10,28,25.70
2016,08,25,10,29,25.80
2016,08,25,10,30,25.80
2016,08,25,10,31,25.90
2016,08,25,10,32,26.00
2016,08,25,10,33,26.00
2016,08,25,10,34,26.10
2016,08,25,10,35,26.20
2016,08,25,10,36,26.30
2016,08,25,10,37,26.30
2016,08,25,10,38,26.40
2016,08,25,10,39,26.40
2016,08,25,10,40,26.50
2016,08,25,10,41,26.60
2016,08,25,10,42,26.60
2016,08,25,10,43,26.70
2016,08,25,10,44,26.70
2016,08,25,10,45,26.70
2016,08,25,10,46,26.80
2016,08,25,10,47,26.80
2016,08,25,10,48,26.80
2016,08,25,10,49,26.90
2016,08,25,10,50,26.90
2016,08,25,10,51,27.00
2016,08,25,10,52,27.00
2016,08,25,10,53,27.10
2016,08,25,10,54,27.20
2016,08,25,10,55,27.20
2016,08,25,10,56,27.20
2016,08,25,10,57,27.30
2016,08,25,10,58,27.30
2016,08,25,10,59,27.40
2016,08,25,11,00,27.40
2016,08,25,11,01,27.50
2016,08,25,11,02,27.60
2016,08,25,11,03,27.70
2016,08,25,11,04,27.70
2016,08,25,11,05,27.80
2016,08,25,11,06,27.80
2016,08,25,11,07,27.90
2016,08,25,11,08,28.00
2016,08,25,11,09,28.10
2016,08,25,11,10,28.10
2016,08,25,11,11,28.20
2016,08,25,11,12,28.30
2016,08,25,11,13,28.30
2016,08,25,11,14,28.40
2016,08,25,11,15,28.40
2016,08,25,11,16,28.50
2016,08,25,11,17,28.50
2016,08,25,11,18,28.60
2016,08,25,11,19,28.60
2016,08,25,11,20,28.50
2016,08,25,11,21,28.40
2016,08,25,11,22,28.30
2016,08,25,11,23,28.20
2016,08,25,11,24,28.10
2016,08,25,11,25,28.10
2016,08,25,11,26,28.00
2016,08,25,11,27,27.80
2016,08,25,11,28,27.80
2016,08,25,11,29,27.80
2016,08,25,11,30,27.70
2016,08,25,11,31,27.60
2016,08,25,11,32,27.60
2016,08,25,11,33,27.60
2016,08,25,11,34,27.50
2016,08,25,11,35,27.40
2016,08,25,11,36,27.40
2016,08,25,11,37,27.40
2016,08,25,11,38,27.30
2016,08,25,11,39,27.30
2016,08,25,11,40,27.30
2016,08,25,11,41,27.30
2016,08,25,11,42,27.20
2016,08,25,11,43,27.10
2016,08,25,11,44,27.00
2016,08,25,11,45,26.90
2016,08,25,11,46,26.80
2016,08,25,11,47,26.70
2016,08,25,11,48,26.50
2016,08,25,11,49,26.50
2016,08,25,11,50,26.40
2016,08,25,11,51,26.30
2016,08,25,11,52,26.30
2016,08,25,11,53,26.30
2016,08,25,11,54,26.30
2016,08,25,11,55,26.30
2016,08,25,11,56,26.30
2016,08,25,11,57,26.30
2016,08,25,11,58,26.40
2016,08,25,11,59,26.40
2016,08,25,12,00,26.40
2016,08,25,12,01,26.40
2016,08,25,12,02,26.40
2016,08,25,12,03,26.50
2016,08,25,12,04,26.50
2016,08,25,12,05,26.50
2016,08,25,12,06,26.60
2016,08,25,12,07,26.60
2016,08,25,12,08,26.60
2016,08,25,12,09,26.70
2016,08,25,12,10,26.70
2016,08,25,12,11,26.70
2016,08,25,12,12,26.80
2016,08,25,12,13,26.80
2016,08,25,12,14,26.80
2016,08,25,12,15,26.80
2016,08,25,12,16,26.90
2016,08,25,12,17,26.90
2016,08,25,12,18,26.90
2016,08,25,12,19,27.00
2016,08,25,12,20,27.10
2016,08,25,12,21,27.10
2016,08,25,12,22,27.20
2016,08,25,12,23,27.20
2016,08,25,12,24,27.30
2016,08,25,12,25,27.30
2016,08,25,12,26,27.30
2016,08,25,12,27,27.40
2016,08,25,12,28,27.40
2016,08,25,12,29,27.50
2016,08,25,12,30,27.60
2016,08,25,12,31,27.60
2016,08,25,12,32,27.60
2016,08,25,12,33,27.60
2016,08,25,12,34,27.60
2016,08,25,12,35,27.60
2016,08,25,12,36,27.60
2016,08,25,12,37,27.70
2016,08,25,12,38,27.70
2016,08,25,12,39,27.70
2016,08,25,12,40,27.70
2016,08,25,12,41,27.70
2016,08,25,12,42,27.70
2016,08,25,12,43,27.70
2016,08,25,12,44,27.70
2016,08,25,12,45,27.70
2016,08,25,12,46,27.80
2016,08,25,12,47,27.80
2016,08,25,12,48,27.80
2016,08,25,12,49,27.80
2016,08,25,12,50,27.90
2016,08,25,12,51,27.90
2016,08,25,12,52,27.90
2016,08,25,12,53,27.90
2016,08,25,12,54,28.00
2016,08,25,12,55,28.00
2016,08,25,12,56,28.00
2016,08,25,12,57,28.10
2016,08,25,12,58,28.10
2016,08,25,12,59,28.20
2016,08,25,13,00,28.20
2016,08,25,13,01,28.20
2016,08,25,13,02,28.20
2016,08,25,13,03,28.20
2016,08,25,13,04,28.20
2016,08,25,13,05,28.20
2016,08,25,13,06,28.30
2016,08,25,13,07,28.30
2016,08,25,13,08,28.30
2016,08,25,13,09,28.40
2016,08,25,13,10,28.50
2016,08,25,13,11,28.60
2016,08,25,13,12,28.70
2016,08,25,13,13,28.80
2016,08,25,13,14,28.80
2016,08,25,13,15,28.80
2016,08,25,13,16,28.90
2016,08,25,13,17,28.90
2016,08,25,13,18,29.00
2016,08,25,13,19,29.10
2016,08,25,13,20,29.20
2016,08,25,13,21,29.30
2016,08,25,13,22,29.40
2016,08,25,13,23,29.50
2016,08,25,13,24,29.60
2016,08,25,13,25,29.70
2016,08,25,13,26,29.80
2016,08,25,13,27,29.80
2016,08,25,13,28,29.90
2016,08,25,13,29,30.00
2016,08,25,13,30,30.10
2016,08,25,13,31,30.10
2016,08,25,13,32,30.20
2016,08,25,13,33,30.20
2016,08,25,13,34,30.20
2016,08,25,13,35,30.30
2016,08,25,13,36,30.30
2016,08,25,13,37,30.40
2016,08,25,13,38,30.40
2016,08,25,13,39,30.40
2016,08,25,13,40,30.50
2016,08,25,13,41,30.50
2016,08,25,13,42,30.50
2016,08,25,13,43,30.50
2016,08,25,13,44,30.50
2016,08,25,13,45,30.50
2016,08,25,13,46,30.60
2016,08,25,13,47,30.60
2016,08,25,13,48,30.60
2016,08,25,13,49,30.60
2016,08,25,13,50,30.60
2016,08,25,13,51,30.60
2016,08,25,13,52,30.60
2016,08,25,13,53,30.60
2016,08,25,13,54,30.60
2016,08,25,13,55,30.70
2016,08,25,13,56,30.70
2016,08,25,13,57,30.70
2016,08,25,13,58,30.70
2016,08,25,13,59,30.70
2016,08,25,14,00,30.70
2016,08,25,14,01,30.80
2016,08,25,14,02,30.80
2016,08,25,14,03,30.80
2016,08,25,14,04,30.90
2016,08,25,14,05,30.90
2016,08,25,14,06,30.90
2016,08,25,14,07,30.90
2016,08,25,14,08,31.00
2016,08,25,14,09,31.00
2016,08,25,14,10,31.00
2016,08,25,14,11,31.00
2016,08,25,14,12,31.10
2016,08,25,14,13,31.10
2016,08,25,14,14,31.20
2016,08,25,14,15,31.20
2016,08,25,14,16,31.20
2016,08,25,14,17,31.20
2016,08,25,14,18,31.20
2016,08,25,14,19,31.20
2016,08,25,14,20,31.20
2016,08,25,14,21,31.20
2016,08,25,14,22,31.10
2016,08,25,14,23,31.10
2016,08,25,14,24,31.10
2016,08,25,14,25,31.10
2016,08,25,14,26,31.10
2016,08,25,14,27,31.00
2016,08,25,14,28,30.90
2016,08,25,14,29,30.90
2016,08,25,14,30,30.80
2016,08,25,14,31,30.80
2016,08,25,14,32,30.80
2016,08,25,14,33,30.80
2016,08,25,14,34,30.80
2016,08,25,14,35,30.90
2016,08,25,14,36,30.90
2016,08,25,14,37,31.00
2016,08,25,14,38,31.00
2016,08,25,14,39,31.10
2016,08,25,14,40,31.10
2016,08,25,14,41,31.20
2016,08,25,14,42,31.20
2016,08,25,14,43,31.30
2016,08,25,14,44,31.30
2016,08,25,14,45,31.30
2016,08,25,14,46,31.40
2016,08,25,14,47,31.40
2016,08,25,14,48,31.50
2016,08,25,14,49,31.50
2016,08,25,14,50,31.60
2016,08,25,14,51,31.60
2016,08,25,14,52,31.60
2016,08,25,14,53,31.60
2016,08,25,14,54,31.60
2016,08,25,14,55,31.60
2016,08,25,14,56,31.60
2016,08,25,14,57,31.60
2016,08,25,14,58,31.60
2016,08,25,14,59,31.60
2016,08,25,15,00,31.60
2016,08,25,15,01,31.60
2016,08,25,15,02,31.60
2016,08,25,15,03,31.70
2016,08,25,15,04,31.70
2016,08,25,15,05,31.60
2016,08,25,15,06,31.60
2016,08,25,15,07,31.50
2016,08,25,15,08,31.50
2016,08,25,15,09,31.40
2016,08,25,15,10,31.40
2016,08,25,15,11,31.30
2016,08,25,15,12,31.30
2016,08,25,15,13,31.30
2016,08,25,15,14,31.30
2016,08,25,15,15,31.20
2016,08,25,15,16,31.20
2016,08,25,15,17,31.20
2016,08,25,15,18,31.20
2016,08,25,15,19,31.20
2016,08,25,15,20,31.20
2016,08,25,15,21,31.20
2016,08,25,15,22,31.10
2016,08,25,15,23,31.10
2016,08,25,15,24,31.00
2016,08,25,15,25,30.90
2016,08,25,15,26,30.90
2016,08,25,15,27,30.90
2016,08,25,15,28,30.90
2016,08,25,15,29,30.90
2016,08,25,15,30,30.90
2016,08,25,15,31,30.90
2016,08,25,15,32,30.90
2016,08,25,15,33,30.90
2016,08,25,15,34,31.00
2016,08,25,15,35,31.00
2016,08,25,15,36,31.00
2016,08,25,15,37,31.00
2016,08,25,15,38,31.00
2016,08,25,15,39,31.10
2016,08,25,15,40,31.10
2016,08,25,15,41,31.10
2016,08,25,15,42,31.10
2016,08,25,15,43,31.10
2016,08,25,15,44,31.10
2016,08,25,15,45,31.20
2016,08,25,15,46,31.20
2016,08,25,15,47,31.20
2016,08,25,15,48,31.30
2016,08,25,15,49,31.40
2016,08,25,15,50,31.40
2016,08,25,15,51,31.50
2016,08,25,15,52,31.60
2016,08,25,15,53,31.70
2016,08,25,15,54,31.80
2016,08,25,15,55,31.80
2016,08,25,15,56,31.80
2016,08,25,15,57,31.80
2016,08,25,15,58,31.80
2016,08,25,15,59,31.80
2016,08,25,16,00,31.70
2016,08,25,16,01,31.60
2016,08,25,16,02,31.50
2016,08,25,16,03,31.30
2016,08,25,16,04,31.20
2016,08,25,16,05,31.10
2016,08,25,16,06,30.90
2016,08,25,16,07,30.80
2016,08,25,16,08,30.50
2016,08,25,16,09,30.30
2016,08,25,16,10,30.10
2016,08,25,16,11,30.00
2016,08,25,16,12,29.90
2016,08,25,16,13,29.80
2016,08,25,16,14,29.70
2016,08,25,16,15,29.60
2016,08,25,16,16,29.50
2016,08,25,16,17,29.40
2016,08,25,16,18,29.40
2016,08,25,16,19,29.40
2016,08,25,16,20,29.40
2016,08,25,16,21,29.40
2016,08,25,16,22,29.50
2016,08,25,16,23,29.50
2016,08,25,16,24,29.60
2016,08,25,16,25,29.60
2016,08,25,16,26,29.70
2016,08,25,16,27,29.80
2016,08,25,16,28,29.90
2016,08,25,16,29,30.00
2016,08,25,16,30,30.10
2016,08,25,16,31,30.20
2016,08,25,16,32,30.30
2016,08,25,16,33,30.40
2016,08,25,16,34,30.50
2016,08,25,16,35,30.60
2016,08,25,16,36,30.70
2016,08,25,16,37,30.80
2016,08,25,16,38,30.90
2016,08,25,16,39,31.00
2016,08,25,16,40,31.00
2016,08,25,16,41,31.10
2016,08,25,16,42,31.20
2016,08,25,16,43,31.20
2016,08,25,16,44,31.30
2016,08,25,16,45,31.30
2016,08,25,16,46,31.30
2016,08,25,16,47,31.30
2016,08,25,16,48,31.40
2016,08,25,16,49,31.50
2016,08,25,16,50,31.50
2016,08,25,16,51,31.60
2016,08,25,16,52,31.70
2016,08,25,16,53,31.70
2016,08,25,16,54,31.80
2016,08,25,16,55,31.80
2016,08,25,16,56,31.90
2016,08,25,16,57,32.00
2016,08,25,16,58,32.00
2016,08,25,16,59,32.10
2016,08,25,17,00,32.10
2016,08,25,17,01,32.20
2016,08,25,17,02,32.20
2016,08,25,17,03,32.30
2016,08,25,17,04,32.30
2016,08,25,17,05,32.40
2016,08,25,17,06,32.40
2016,08,25,17,07,32.50
2016,08,25,17,08,32.50
2016,08,25,17,09,32.60
2016,08,25,17,10,32.70
2016,08,25,17,11,32.80
2016,08,25,17,12,32.80
2016,08,25,17,13,32.90
2016,08,25,17,14,32.90
2016,08,25,17,15,33.00
2016,08,25,17,16,33.00
2016,08,25,17,17,33.10
2016,08,25,17,18,33.10
2016,08,25,17,19,33.10